This is the latest recevied weather packets stored in our database for station/object KC0CAU. If no packets are shown the sender has not sent any weather packets the latest 10 day(s).
| Time | Temp. | Humidity | Pressure | Rain* | Wind** | Luminosity | Snow |
|---|---|---|---|---|---|---|---|
| 1777985117 | 2.22° C | 70% | 1015.7 hPa | 0 mm | - | - | - |
| 1777984227 | 2.22° C | 70% | 1015.5 hPa | 0 mm | - | - | - |
| 1777983313 | 2.22° C | 70% | 1015.3 hPa | 0 mm | - | - | - |
| 1777982419 | 2.22° C | 70% | 1015.3 hPa | 0 mm | - | - | - |
| 1777981511 | 1.67° C | 70% | 1015.2 hPa | 0 mm | - | - | - |
| 1777980609 | 1.67° C | 70% | 1015.1 hPa | 0 mm | - | - | - |
| 1777979716 | 1.67° C | 71% | 1014.9 hPa | 0 mm | - | - | - |
| 1777978803 | 1.67° C | 72% | 1015 hPa | 0 mm | - | - | - |
| 1777977903 | 1.67° C | 71% | 1014.8 hPa | 0 mm | - | - | - |
| 1777977001 | 1.67° C | 71% | 1014.7 hPa | 0 mm | - | - | - |
| 1777976101 | 1.67° C | 71% | 1014.8 hPa | 0 mm | - | - | - |
| 1777975266 | 1.11° C | 70% | 1014.9 hPa | 0 mm | - | - | - |
| 1777974357 | 1.11° C | 70% | 1014.7 hPa | 0 mm | - | - | - |
| 1777973463 | 1.67° C | 68% | 1014.7 hPa | 0 mm | - | - | - |
| 1777972556 | 1.67° C | 68% | 1014.6 hPa | 0 mm | - | - | - |
| 1777971653 | 1.67° C | 67% | 1014.4 hPa | 0 mm | - | - | - |
| 1777970753 | 2.22° C | 66% | 1014.5 hPa | 0 mm | - | - | - |
| 1777969851 | 1.67° C | 67% | 1014.4 hPa | 0 mm | - | - | - |
| 1777968963 | 2.22° C | 67% | 1014.4 hPa | 0 mm | - | - | - |
| 1777968058 | 2.22° C | 66% | 1014.3 hPa | 0 mm | - | - | - |
| 1777967147 | 2.22° C | 65% | 1014.3 hPa | 0 mm | - | - | - |
| 1777966248 | 2.78° C | 64% | 1014.4 hPa | 0 mm | - | - | - |
| 1777965352 | 2.78° C | 64% | 1014.3 hPa | 0 mm | - | - | - |
| 1777964442 | 2.78° C | 64% | 1014.2 hPa | 0 mm | - | - | - |
| 1777963540 | 2.22° C | 64% | 1014.2 hPa | 0 mm | - | - | - |
* Rain latest hour (hover to see other rain measurements)
** Current wind speed in m/s (hover to see current wind gust speed)